Weather in Ryabtsevo

Russia / Kaluga Oblast     54°51′14″N   36°11′51″E
temp.,
°C
wind,
m/s
gust,
m/s
humid.,
%
clouds,
%
prec.,
mm/h
press.,
hPa
HPBL,
m
6 march, sat
sat600:00−10nw118819 0.0 101521
03:00−9nnw128955 0.0 101721
06:00−12nw239442 0.0 101738
09:00−10nw359321 0.0 1018168
12:00−6wnw46810 0.0 1019830
15:00−5wnw577650 0.2 10171202
18:00−8wnw338266 0.1 101738
21:00−10wsw348742 0.1 101657
7 march, sun
sun700:00−10sw499124 0.0 1014167
03:00−8sw7148556 0.0 1010528
06:00−7sw91691100 0.1 1006834
09:00−5sw101792100 0.7 10011103
12:00−2wsw101793100 1.3 9961275
15:00−5nw91688100 3.1 9961270
18:00−7wnw337470 0.1 99733
21:00−7sw6138259 0.1 998401
8 march, mon
mon800:00−5w61288100 0.5 9971002
03:00−7wsw6129197 0.6 997668
06:00−11wsw5129389 0.2 998490
09:00−9nw7128294 0.6 1002768
12:00−8wnw698588 0.1 1004934
15:00−6wnw698194 0.2 10071108
18:00−8wnw4887100 0.1 1009269
21:00−11nw349496 0.1 101278
9 march, tue
tue900:00−13nnw229759 0.0 101323
03:00−14n239779 0.0 101529
06:00−15n2396100 0.0 101656
09:00−14n3593100 0.0 1018219
12:00−11n348386 0.0 1018528
15:00−9nnw358091 0.0 1019832
18:00−12n2390100 0.1 102045
21:00−16n1295100 0.1 102321
10 march, wed
wed1000:00−18w119861 0.0 102320
03:00−15ssw229480 0.0 102322
06:00−14s3696100 0.1 1023163
09:00−12s4794100 1.2 1022366
12:00−7sw3692100 0.8 1021564
15:00−5sw3588100 1.3 1020570
18:00−6ssw2297100 0.4 102095
21:00−9e3595100 1.2 1020117